Hourly Data Report for October 03, 2017

All times are specified in Local Standard Time (LST). Add 1 hour to adjust for Daylight Saving Time where and when it is observed.

MOOSE CREEK WELLS
ONTARIO

45°15'04.000" N
74°57'46.000" W
84.50 m
6105397
71635
TCK

Download Data

Hourly Data (October 2017)
Hourly Data Report for October 3, 2017
Temp Definition
°C
Dew Point Temp Definition
°C
Rel Hum Definition
%
Wind Dir Definition
10's deg

Wind Spd Definition
km/h
Visibility Definition
km
Stn Press Definition
kPa
Hmdx Definition


Wind Chill Definition


Weather Definition


TIME
00:00 8.2 7.3 94 8 6   102.10     LegendNANA
01:00 6.9 6.1 95 16 2   102.14     LegendNANA
02:00 6.1 5.8 98   0   102.16     LegendNANA
03:00 7.1 7.0 99 9 4   102.14     LegendNANA
04:00 5.9 5.8 100 10 2   102.17     LegendNANA
05:00 5.8 5.8 100 6 6   102.22     LegendNANA
06:00 5.8 5.7 100 5 6   102.24     LegendNANA
07:00 7.6 7.2 97 9 6   102.26     LegendNANA
08:00 10.6 8.8 89 6 6   102.31     LegendNANA
09:00 14.4 10.0 75 16 5   102.29     LegendNANA
10:00 17.1 9.5 61 17 11   102.19     LegendNANA
11:00 20.0 9.5 51 21 7   102.14     LegendNANA
12:00 21.3 9.2 46 21 7   102.06     LegendNANA
13:00 21.9 8.4 42 22 13   102.00     LegendNANA
14:00 22.8 9.6 43 19 12   101.96     LegendNANA
15:00 22.8 9.9 44 20 10   101.89     LegendNANA
16:00 22.6 10.2 46 21 9   101.83     LegendNANA
17:00 20.6 9.7 49 22 6   101.82     LegendNANA
18:00 14.7 9.9 73 19 5   101.78     LegendNANA
19:00 13.4 9.7 79 18 4   101.75     LegendNANA
20:00 12.4 9.9 85 18 4   101.72     LegendNANA
21:00 11.7 9.2 85 14 3   101.73     LegendNANA
22:00 13.9 9.8 76 19 7   101.70     LegendNANA
23:00 14.4 9.3 71 19 9   101.65     LegendNANA

Notes on Data Quality.

Legend

  • E = Estimated
  • M = Missing
  • NA = Not Available
  • ‡ = Partner data that is not subject to review by the National Climate Archives
Date modified: